YAOGAN-4

Last updated on Mon Oct 14 2024 00:02:24 GMT+0000 (Coordinated Universal Time)

1 33446U 08061A 24287.39383383 .00003339 00000+0 44065-3 0 9997 2 33446 97.8833 217.1023 0013012 261.2836 98.6902 14.80657981855046
UTC large
Height (km)
Speed (km/s)
/
Latitude / Longitude
Inclination (degrees)
Orbital Period (minutes)
Azimuth
Elevation
Range (km)
Doppler Factor

Next 0 passes for location: London (51.5072 / 0.1276)

Sorry there are no passes over London.